Frederick, MD

12:43 AM EST on November 19, 2017 (GMT -0500)
Frederick Municipal

Weather History for KFDK - December, 2012

Change the Weather History Date:

Thursday, December 6, 2012

  Actual Average (KHGR) Record (KHGR)
Temperature  
Mean Temperature 34 °F -  
Max Temperature 46 °F 43 °F 73 °F (1998)
Min Temperature 21 °F 30 °F 11 °F (2007)
Degree Days  
Heating Degree Days 32    
Moisture  
Dew Point 26 °F    
Average Humidity 85    
Maximum Humidity 100    
Minimum Humidity 46    
Precipitation  
Precipitation 0.00 in - - ()
Sea Level Pressure  
Sea Level Pressure 30.33 in    
Wind  
Wind Speed 2 mph (NNE)    
Max Wind Speed 8 mph    
Max Gust Speed -    
Visibility 10 miles    
Events      
Averages and records for this station are not official NWS values.
T = Trace of Precipitation, MM = Missing Value Source: NWS Daily Summary

Daily Weather History Graph

Daily Weather History Graph

Search for Another Location

Airport or City:

Trip Planner

Search our weather history database for the weather conditions in past years. The results will help you decide how hot, cold, wet, or windy it might be!

Date:

Astronomy

Dec. 06, 2012 Rise Set
Actual Time 7:15 AM EST 4:45 PM EST
Civil Twilight 6:45 AM EST 5:15 PM EST
Nautical Twilight 6:12 AM EST 5:49 PM EST
Astronomical Twilight 5:39 AM EST 6:21 PM EST
Moon No Moon Rise 12:09 PM EST (12/6)
Length of Visible Light 10h 30m
Length of Day
9h 30m
Waning Gibbous, 49% of the Moon is Illuminated
Dec 6
Waning Gibbous
Dec 13
New
Dec 20
First Quarter
Dec 28
Full
Jan 4
Last Quarter

Hourly Weather History & Observations

Time (EST) Temp. Windchill Dew Point Humidity Pressure Visibility Wind Dir Wind Speed Gust Speed Precip Events Conditions
12:05 AM 33.8 °F 27.7 °F 26.6 °F 75% 30.34 in 10.0 mi NNW 6.9 mph - N/A   Clear
12:25 AM 33.8 °F 27.0 °F 26.6 °F 75% 30.33 in 10.0 mi NNW 8.1 mph - N/A   Clear
12:50 AM 32.0 °F 28.7 °F 26.6 °F 80% 30.32 in 10.0 mi North 3.5 mph - N/A   Clear
1:10 AM 32.0 °F - 26.6 °F 80% 30.33 in 10.0 mi Calm Calm - N/A   Clear
1:30 AM 30.2 °F - 23.0 °F 75% 30.34 in 10.0 mi Calm Calm - N/A   Clear
1:55 AM 28.4 °F - 26.6 °F 93% 30.35 in 10.0 mi Calm Calm - N/A   Clear
2:15 AM 26.6 °F - 26.6 °F 100% 30.35 in 10.0 mi Calm Calm - N/A   Clear
2:35 AM 28.4 °F - 26.6 °F 93% 30.34 in 10.0 mi Calm Calm - N/A   Clear
2:55 AM 26.6 °F - 24.8 °F 93% 30.35 in 10.0 mi Calm Calm - N/A   Clear
3:20 AM 26.6 °F - 26.6 °F 100% 30.36 in 10.0 mi Calm Calm - N/A   Clear
3:40 AM 26.6 °F - 26.6 °F 100% 30.36 in 10.0 mi Calm Calm - N/A   Clear
4:00 AM 24.8 °F - 24.8 °F 100% 30.36 in 10.0 mi Calm Calm - N/A   Clear
4:20 AM 23.0 °F - 23.0 °F 100% 30.36 in 10.0 mi Calm Calm - N/A   Clear
4:45 AM 23.0 °F - 23.0 °F 100% 30.37 in 10.0 mi Calm Calm - N/A   Clear
5:45 AM 23.0 °F - 23.0 °F 100% 30.37 in 10.0 mi Calm Calm - N/A   Clear
5:50 AM 23.0 °F - 23.0 °F 100% 30.37 in 10.0 mi Calm Calm - N/A   Clear
6:50 AM 21.2 °F - 21.2 °F 100% 30.38 in 10.0 mi Calm Calm - N/A   Clear
7:55 AM 23.0 °F - 23.0 °F 100% 30.40 in 10.0 mi Calm Calm - N/A   Clear
9:50 AM 35.6 °F 29.2 °F 24.8 °F 65% 30.42 in 10.0 mi NE 8.1 mph - N/A   Clear
10:50 AM 39.2 °F 37.0 °F 24.8 °F 56% 30.41 in 10.0 mi North 3.5 mph - N/A   Clear
11:50 AM 44.6 °F - 26.6 °F 49% 30.37 in 10.0 mi Calm Calm - N/A   Clear
2:50 PM 46.4 °F - 26.6 °F 46% 30.31 in 10.0 mi Calm Calm - N/A   Clear
3:50 PM 44.6 °F 43.1 °F 26.6 °F 49% 30.29 in 10.0 mi SSW 3.5 mph - N/A   Clear
4:45 PM 37.4 °F - 28.4 °F 70% 30.29 in 10.0 mi Calm Calm - N/A   Clear
5:46 PM 32.0 °F - 26.6 °F 80% 30.29 in 10.0 mi Calm Calm - N/A   Clear
6:45 PM 30.2 °F - 26.6 °F 86% 30.29 in 10.0 mi Calm Calm - N/A   Clear
7:53 PM 28.4 °F - 26.6 °F 93% 30.28 in 10.0 mi Calm Calm - N/A   Clear
7:55 PM 28.4 °F - 26.6 °F 93% 30.28 in 10.0 mi Calm Calm - N/A   Clear
8:20 PM 32.0 °F 28.7 °F 26.6 °F 80% 30.28 in 10.0 mi ESE 3.5 mph - N/A   Clear
8:40 PM 32.0 °F - 26.6 °F 80% 30.28 in 10.0 mi Calm Calm - N/A   Clear
9:00 PM 32.0 °F - 26.6 °F 80% 30.28 in 10.0 mi Calm Calm - N/A   Clear
9:20 PM 30.2 °F - 28.4 °F 93% 30.28 in 10.0 mi Calm Calm - N/A   Clear
9:45 PM 32.0 °F - 28.4 °F 87% 30.29 in 10.0 mi Calm Calm - N/A   Clear
10:05 PM 30.2 °F - 28.4 °F 93% 30.29 in 10.0 mi Calm Calm - N/A   Clear
10:25 PM 30.2 °F - 28.4 °F 93% 30.28 in 10.0 mi Calm Calm - N/A   Clear
10:45 PM 30.2 °F - 28.4 °F 93% 30.28 in 10.0 mi Calm Calm - N/A   Clear
11:10 PM 30.2 °F - 28.4 °F 93% 30.28 in 10.0 mi Calm Calm - N/A   Clear
11:30 PM 30.2 °F - 28.4 °F 93% 30.27 in 10.0 mi Calm Calm - N/A   Clear
11:50 PM 30.2 °F - 28.4 °F 93% 30.27 in 10.0 mi Calm Calm - N/A   Mostly Cloudy